Content
SEND FEEDBACK

Daily
Averages
Monthly
Summary
Peru

CONCORDIA, PERU


Home > South America > Peru
Elevation: 190 feet     Latitude: 18 19S     Longitude: 070 19W

WEATHER
 
SELECT A DAY
Number of Records: 177,124;   Date Range: 6/30/96 - 8/31/14
 
SHARE

PRINT THIS DATA

[ ← Previous Day ]
WEATHER ALMANAC - JANUARY 31, 2013
[ Next Day → ]
[ °C ]   °F
Weather ElementAverageHighLow
Temperature72.5 °F77 °F (12:00 pm)68 °F (3:00 am)
Dewpoint56.9 °F59 °F (7:00 pm)55.4 °F (1:00 am)
Humidity56 %68 % (3:00 am)38 % (3:00 pm)
Barometer29.85 in29.92 in (12:00 am)29.77 in (4:00 pm)
Wind Speed7 mph17.3 mph (4:00 pm)
Weather ElementAverage
Visibility8.5 mi
Wind DirectionWSW (230.7 °)

Weather ElementTotal
Precipitation---
Cooling Degree Days7.5 (Base 65)
Growing Degree Days22.5 (Base 50)
Averaged from 30 records on January 31, 2013
WEATHER CONDITIONS BREAKOUT
WIND DIRECTION BREAKOUT
WEATHER BY HOUR - JANUARY 31, 2013
[ °C ]   °F
Local TimeTemperatureDewpointHumidityBarometerVisibilityWind DirectionWind SpeedGust SpeedPrecipitationEventsConditions
12:00 AM69.8 °F57.2 °F64 %29.92 in6.2 miNW (310°)2.3 mphMostly Cloudy
1:00 AM69.8 °F55.4 °F60 %29.89 in6.2 miWSW (250°)4.6 mphOvercast
2:00 AM69.8 °F57.2 °F64 %29.89 in6.2 miWSW (240°)4.6 mphOvercast
3:00 AM69.0 °F56.0 °F55 %29.88 in6.0 miSSW (210°)2.3 mphOvercast
3:00 AM68.0 °F57.2 °F68 %29.86 in6.2 miSSW (210°)2.3 mphOvercast
4:00 AM69.8 °F57.2 °F64 %29.86 in6.2 miNW (320°)2.3 mphOvercast
5:00 AM69.8 °F57.2 °F64 %29.83 in6.2 miNW (310°)3.5 mphOvercast
6:00 AM69.8 °F55.4 °F60 %29.83 in6.2 miNNW (340°)3.5 mphOvercast
6:00 AM70.0 °F56.0 °F50 %29.84 in6.0 miNNW (340°)3.5 mphOvercast
7:00 AM69.8 °F55.4 °F60 %29.83 in6.2 miNNW (340°)5.8 mphOvercast
8:00 AM69.8 °F55.4 °F60 %29.83 in6.2 miNNW (330°)5.8 mphOvercast
9:00 AM69.8 °F57.2 °F64 %29.86 in6.2 miWNW (290°)5.8 mphOvercast
10:00 AM71.6 °F57.2 °F60 %29.86 in6.2 miWNW (290°)4.6 mphOvercast
11:00 AM75.2 °F55.4 °F50 %29.86 in6.2 miCalmOvercast
12:00 PM77.0 °F57.2 °F50 %29.83 in6.2 miSW (220°)8.1 mphScattered Clouds
12:00 PM76.0 °F57.0 °F41 %29.85 in19.0 miSW (220°)8.1 mphPartly Cloudy
1:00 PM77.0 °F57.2 °F50 %29.83 inSW (230°)11.5 mphClear
2:00 PM75.2 °F57.2 °F53 %29.83 inSSW (210°)15.0 mphClear
3:00 PM77.0 °F56.0 °F38 %29.80 in19.0 miSSW (200°)13.8 mph
3:00 PM77.0 °F55.4 °F47 %29.80 inSSW (200°)13.8 mphClear
4:00 PM75.2 °F55.4 °F50 %29.77 inSSW (210°)17.3 mphClear
5:00 PM75.2 °F55.4 °F50 %29.80 inSSW (200°)16.1 mphClear
6:00 PM75.2 °F57.2 °F53 %29.80 inSSW (210°)12.7 mphClear
6:00 PM74.0 °F57.0 °F45 %29.80 in19.0 miSSW (210°)12.7 mph
7:00 PM73.4 °F59.0 °F61 %29.80 inSSW (210°)10.4 mphClear
8:00 PM71.6 °F59.0 °F64 %29.86 inSW (220°)6.9 mphClear
9:00 PM72.0 °F58.0 °F52 %29.89 in19.0 miSouth (190°)3.5 mphPartly Cloudy
9:00 PM71.6 °F59.0 °F64 %29.89 in6.2 miSouth (190°)3.5 mphScattered Clouds
10:00 PM73.4 °F59.0 °F61 %29.92 in6.2 miESE (110°)3.5 mphOvercast
11:00 PM73.4 °F57.2 °F57 %29.92 in6.2 miESE (110°)3.5 mphOvercast
Hourly data recorded from SCAR, located miles away from Concordia, Peru







STORIES FROM OUR PARTNERS